International Skating Union - Official Site

ISU World Cup Inzell
December 4-6, 2015

Draw | Lap Times | Index | World Cup

Referee: Dan  IMMERFALL  (USA)
Starter: John Magne  ELIASSEN  (NOR)
StartTime: EndTime: Air Temp: Ice Temp: Humidity:
18:17 18:59 13.6 ℃ -6.3 ℃ 31%
Result Team Pursuit Men
Rankings as of Dec 6 2015 6:51PM
Rank: No.: Team: Nation: Time: Behind: Points:
Total 12
1 13 Netherlands (84) Jan Blokhuijsen (86) Douwe de Vries (96) Arjan Stroetinga (83) Jorrit Bergsma NED NED 3:41.270.5 - 18.36 - (18.3)
1.0 - 31.97 - (13.6)
1.5 - 45.44 - (13.4)
2.0 - 59.02 - (13.5)
2.5 - 1:12.63 - (13.6)
3.0 - 1:26.43 - (13.8)
3.5 - 1:39.88 - (13.4)
4.0 - 1:53.43 - (13.5)
4.5 - 2:06.75 - (13.3)
5.0 - 2:20.08 - (13.3)
5.5 - 2:33.65 - (13.5)
6.0 - 2:47.03 - (13.3)
6.5 - 3:00.40 - (13.3)
7.0 - 3:14.24 - (13.8)
7.5 - 3:27.69 - (13.4)
8.0 - 3:41.27 - (13.5)
100
2 6 Norway (106) Sverre Lunde Pedersen (100) Håvard Bøkko (102) Sindre Henriksen (110) Aleksander Waagenes NOR NOR 3:44.880.5 - 17.54 - (17.5)
1.0 - 31.00 - (13.4)
1.5 - 44.49 - (13.4)
2.0 - 58.24 - (13.7)
2.5 - 1:12.21 - (13.9)
3.0 - 1:26.24 - (14.0)
3.5 - 1:40.10 - (13.8)
4.0 - 1:54.02 - (13.9)
4.5 - 2:07.98 - (13.9)
5.0 - 2:22.08 - (14.1)
5.5 - 2:36.26 - (14.1)
6.0 - 2:50.09 - (13.8)
6.5 - 3:03.65 - (13.5)
7.0 - 3:17.17 - (13.5)
7.5 - 3:30.89 - (13.7)
8.0 - 3:44.88 - (14.0)
3.61 80
3 10 Poland (121) Jan Szymanski (117) Konrad Niedzwiedzki (114) Zbigniew Brodka (115) Sebastian Klosinski POL POL 3:46.170.5 - 17.94 - (17.9)
1.0 - 31.81 - (13.8)
1.5 - 45.51 - (13.6)
2.0 - 59.28 - (13.7)
2.5 - 1:13.34 - (14.0)
3.0 - 1:27.51 - (14.1)
3.5 - 1:41.24 - (13.7)
4.0 - 1:54.98 - (13.7)
4.5 - 2:08.92 - (13.9)
5.0 - 2:22.52 - (13.6)
5.5 - 2:36.13 - (13.6)
6.0 - 2:50.04 - (13.9)
6.5 - 3:04.07 - (14.0)
7.0 - 3:18.35 - (14.2)
7.5 - 3:32.23 - (13.8)
8.0 - 3:46.17 - (13.9)
4.90 70
4 12 Korea (73) Hyung-Joon Joo (74) Cheol-Min Kim (80) Seung-Hoon Lee (77) Min Seok Kim KOR KOR 3:46.620.5 - 17.91 - (17.9)
1.0 - 31.49 - (13.5)
1.5 - 44.86 - (13.3)
2.0 - 58.32 - (13.4)
2.5 - 1:12.00 - (13.6)
3.0 - 1:25.73 - (13.7)
3.5 - 1:39.44 - (13.7)
4.0 - 1:53.35 - (13.9)
4.5 - 2:07.36 - (14.0)
5.0 - 2:21.28 - (13.9)
5.5 - 2:35.45 - (14.1)
6.0 - 2:49.59 - (14.1)
6.5 - 3:03.94 - (14.3)
7.0 - 3:18.17 - (14.2)
7.5 - 3:32.35 - (14.1)
8.0 - 3:46.62 - (14.2)
5.35 60
5 11 Italy (53) Luca Stefani (50) Andrea Giovannini (49) Fabio Francolini (54) Nicola Tumolero ITA ITA 3:46.930.5 - 18.22 - (18.2)
1.0 - 32.08 - (13.8)
1.5 - 45.88 - (13.8)
2.0 - 59.60 - (13.7)
2.5 - 1:13.51 - (13.9)
3.0 - 1:27.04 - (13.5)
3.5 - 1:40.89 - (13.8)
4.0 - 1:54.84 - (13.9)
4.5 - 2:09.05 - (14.2)
5.0 - 2:23.04 - (13.9)
5.5 - 2:37.16 - (14.1)
6.0 - 2:51.27 - (14.1)
6.5 - 3:05.33 - (14.0)
7.0 - 3:19.50 - (14.1)
7.5 - 3:33.32 - (13.8)
8.0 - 3:46.93 - (13.6)
5.66 50
6 4 Germany (40) Patrick Beckert (42) Moritz Geisreiter (45) Jonas Pflug (43) Hubert Hirschbichler GER GER 3:49.230.5 - 18.08 - (18.0)
1.0 - 31.94 - (13.8)
1.5 - 45.61 - (13.6)
2.0 - 59.43 - (13.8)
2.5 - 1:13.51 - (14.0)
3.0 - 1:27.32 - (13.8)
3.5 - 1:41.23 - (13.9)
4.0 - 1:55.36 - (14.1)
4.5 - 2:09.66 - (14.2)
5.0 - 2:23.82 - (14.1)
5.5 - 2:37.82 - (14.0)
6.0 - 2:51.80 - (13.9)
6.5 - 3:06.15 - (14.3)
7.0 - 3:20.30 - (14.1)
7.5 - 3:34.69 - (14.3)
8.0 - 3:49.23 - (14.5)
7.96 45
7 3 USA (144) Joey Mantia (146) Jeffrey Swider-Peltz (145) Ian Quinn (141) KC Boutiette USA USA 3:49.450.5 - 18.12 - (18.1)
1.0 - 31.83 - (13.7)
1.5 - 45.40 - (13.5)
2.0 - 58.90 - (13.5)
2.5 - 1:12.77 - (13.8)
3.0 - 1:26.87 - (14.1)
3.5 - 1:41.07 - (14.1)
4.0 - 1:55.05 - (13.9)
4.5 - 2:08.94 - (13.8)
5.0 - 2:23.03 - (14.0)
5.5 - 2:37.15 - (14.1)
6.0 - 2:51.33 - (14.1)
6.5 - 3:05.71 - (14.3)
7.0 - 3:20.26 - (14.5)
7.5 - 3:34.99 - (14.7)
8.0 - 3:49.45 - (14.4)
8.18 40
8 8 Russia (125) Sergey Gryaztsov (131) Aleksandr Rumyantsev (134) Sergey Trofimov (133) Danil Sinitsyn RUS RUS 3:50.260.5 - 17.96 - (17.9)
1.0 - 31.70 - (13.7)
1.5 - 45.36 - (13.6)
2.0 - 59.17 - (13.8)
2.5 - 1:13.01 - (13.8)
3.0 - 1:26.79 - (13.7)
3.5 - 1:40.71 - (13.9)
4.0 - 1:54.71 - (14.0)
4.5 - 2:08.79 - (14.0)
5.0 - 2:22.91 - (14.1)
5.5 - 2:37.01 - (14.0)
6.0 - 2:51.32 - (14.3)
6.5 - 3:05.84 - (14.5)
7.0 - 3:20.63 - (14.7)
7.5 - 3:35.48 - (14.8)
8.0 - 3:50.26 - (14.7)
8.99 35
9 7 Japan (59) Shota Nakamura (65) Shane Williamson (60) Takuro Oda (64) Ryosuke Tsuchiya JPN JPN 3:52.760.5 - 17.29 - (17.2)
1.0 - 30.66 - (13.3)
1.5 - 44.27 - (13.6)
2.0 - 57.79 - (13.5)
2.5 - 1:11.63 - (13.8)
3.0 - 1:25.62 - (13.9)
3.5 - 1:39.72 - (14.0)
4.0 - 1:53.75 - (14.0)
4.5 - 2:08.08 - (14.3)
5.0 - 2:22.36 - (14.2)
5.5 - 2:36.96 - (14.5)
6.0 - 2:51.32 - (14.3)
6.5 - 3:06.07 - (14.7)
7.0 - 3:21.28 - (15.2)
7.5 - 3:36.95 - (15.6)
8.0 - 3:52.76 - (15.8)
11.49 30
10 2 Switzerland (140) Livio Wenger (138) Martin Hänggi (139) Christian Oberbichler SUI SUI 4:03.500.5 - 18.53 - (18.5)
1.0 - 32.46 - (13.9)
1.5 - 46.62 - (14.1)
2.0 - 1:00.99 - (14.3)
2.5 - 1:15.96 - (14.9)
3.0 - 1:30.79 - (14.8)
3.5 - 1:45.65 - (14.8)
4.0 - 2:00.42 - (14.7)
4.5 - 2:15.60 - (15.1)
5.0 - 2:30.22 - (14.6)
5.5 - 2:45.08 - (14.8)
6.0 - 3:00.28 - (15.1)
6.5 - 3:15.85 - (15.5)
7.0 - 3:31.63 - (15.7)
7.5 - 3:47.68 - (16.0)
8.0 - 4:03.50 - (15.8)
22.23 25
11 15 Austria (4) Mathias Hauer (3) Armin Hager (5) Linus Heidegger AUT AUT 4:03.520.5 - 18.33 - (18.3)
1.0 - 32.08 - (13.7)
1.5 - 45.96 - (13.8)
2.0 - 59.93 - (13.9)
2.5 - 1:14.36 - (14.4)
3.0 - 1:28.41 - (14.0)
3.5 - 1:42.72 - (14.3)
4.0 - 1:57.19 - (14.4)
4.5 - 2:12.40 - (15.2)
5.0 - 2:27.93 - (15.5)
5.5 - 2:43.34 - (15.4)
6.0 - 2:59.10 - (15.7)
6.5 - 3:14.99 - (15.8)
7.0 - 3:31.04 - (16.0)
7.5 - 3:47.43 - (16.3)
8.0 - 4:03.52 - (16.0)
22.25 21
12 9 Canada (17) Oliver Jean (11) Jordan Belchos (20) Stefan Waples (12) Ted-Jan Bloemen CAN CAN DNS 0